FW1633 Weather Reports


time (UTC)temp
C
wind
direction
speed
KPH
gust
KPH
rain 1hr
cm
rain 24hr
cm
rain mn
cm
humidity
%
barometer
mb
20260506123021 17 251 0.0 0.0 0.00 0.00 0.00 81 1010.7
20260506122504 17 205 0.0 0.0 0.00 0.00 0.00 81 1010.6
20260506122012 17 147 0.0 0.0 0.00 0.00 0.00 82 1010.8
20260506121526 17 156 0.0 0.0 0.00 0.00 0.00 82 1010.9
20260506121009 16 167 0.0 0.0 0.00 0.00 0.00 82 1010.9
20260506120505 16 76 0.0 0.0 0.00 0.00 0.00 83 1011.0
20260506120006 16 202 0.0 0.0 0.00 0.00 0.00 84 1010.8
20260506115503 16 242 0.0 0.0 0.00 0.00 0.00 84 1010.9
20260506115004 16 231 0.0 0.0 0.00 0.00 0.00 84 1011.0
20260506114519 16 263 0.0 0.0 0.00 0.00 0.00 84 1010.9
20260506114003 16 250 0.0 0.0 0.00 0.00 0.00 84 1010.9
20260506113503 16 234 0.0 0.0 0.00 0.00 0.00 85 1010.9
20260506113005 16 235 0.0 0.0 0.00 0.00 0.00 85 1010.9
20260506112502 16 226 0.0 0.0 0.00 0.00 0.00 86 1010.7
20260506112002 15 91 0.0 0.0 0.00 0.00 0.00 86 1010.7
20260506111503 15 232 0.0 0.0 0.00 0.00 0.00 86 1010.7
20260506111002 15 102 0.0 0.0 0.00 0.00 0.00 87 1010.7
20260506110506 15 281 0.0 0.0 0.00 0.00 0.00 87 1010.6
20260506110007 15 210 0.0 0.0 0.00 0.00 0.00 88 1010.7
20260506105503 15 147 0.0 0.0 0.00 0.00 0.00 88 1010.7
20260506105005 14 243 0.0 0.0 0.00 0.00 0.00 89 1010.8
20260506104510 14 175 0.0 0.0 0.00 0.00 0.00 89 1010.8
20260506104004 14 213 0.0 0.0 0.00 0.00 0.00 90 1010.7
20260506103503 13 240 0.0 0.0 0.00 0.00 0.00 90 1010.7
20260506103016 14 248 0.0 0.0 0.00 0.00 0.00 90 1010.7
20260506102507 13 69 0.0 0.0 0.00 0.00 0.00 90 1010.6
20260506102003 13 253 0.0 0.0 0.00 0.00 0.00 91 1010.6
20260506101504 13 236 0.0 0.0 0.00 0.00 0.00 91 1010.4
20260506101006 13 244 0.0 0.0 0.00 0.00 0.00 91 1010.3
20260506100502 13 261 0.0 0.0 0.00 0.00 0.00 91 1010.3
20260506100004 13 235 0.0 0.0 0.00 0.00 0.00 91 1010.3
20260506095503 13 143 0.0 0.0 0.00 0.00 0.00 91 1010.4
20260506095002 13 194 0.0 0.0 0.00 0.00 0.00 91 1010.4
20260506094513 13 229 0.0 0.0 0.00 0.00 0.00 91 1010.4
20260506094004 13 135 0.0 0.0 0.00 0.00 0.00 91 1010.3
20260506093507 13 211 0.0 0.0 0.00 0.00 0.00 91 1010.3
20260506093014 13 214 0.0 0.0 0.00 0.00 0.00 91 1010.3
20260506092503 13 226 0.0 0.0 0.00 0.00 0.00 91 1010.4
20260506092007 13 234 0.0 0.0 0.00 0.00 0.00 91 1010.5
20260506091520 13 158 0.0 0.0 0.00 0.00 0.00 91 1010.5
20260506091009 13 243 0.0 0.0 0.00 0.00 0.00 91 1010.6
20260506090504 13 225 0.0 0.0 0.00 0.00 0.00 90 1010.5
20260506090007 13 247 0.0 0.0 0.00 0.00 0.00 90 1010.6
20260506085502 13 221 0.0 0.0 0.00 0.00 0.00 90 1010.6
20260506085004 13 221 0.0 0.0 0.00 0.00 0.00 90 1010.6
20260506084516 13 168 0.0 0.0 0.00 0.00 0.00 90 1010.6
20260506084003 13 233 0.0 0.0 0.00 0.00 0.00 90 1010.6
20260506083503 13 236 0.0 0.0 0.00 0.00 0.00 90 1010.6
20260506083012 13 120 0.0 0.0 0.00 0.00 0.00 90 1010.6
20260506082503 13 231 0.0 0.0 0.00 0.00 0.00 90 1010.7
20260506082003 13 138 0.0 0.0 0.00 0.00 0.00 90 1010.7
20260506081514 13 234 0.0 0.0 0.00 0.00 0.00 90 1010.7
20260506081008 13 236 0.0 0.0 0.00 0.00 0.00 90 1010.7
20260506080507 13 214 0.0 0.0 0.00 0.00 0.00 90 1010.7
20260506073503 13 237 0.0 0.0 0.00 0.00 0.00 89 1010.7
20260506073008 13 163 0.0 0.0 0.00 0.00 0.00 89 1010.8
20260506072508 13 258 0.0 0.0 0.00 0.00 0.00 89 1010.8
20260506072004 13 169 0.0 0.0 0.00 0.00 0.00 89 1010.9
20260506071515 13 238 0.0 0.0 0.00 0.00 0.00 89 1010.9
20260506071008 13 129 0.0 0.0 0.00 0.00 0.00 89 1011.0
20260506070503 13 126 0.0 0.0 0.00 0.00 0.00 89 1010.9
20260506062503 14 110 0.0 0.0 0.00 0.00 0.00 88 1010.8
20260506062004 14 153 0.0 0.0 0.00 0.00 0.00 87 1010.8
20260506061508 14 128 0.0 0.0 0.00 0.00 0.00 87 1010.9
20260506061006 14 103 0.0 0.0 0.00 0.00 0.00 87 1010.8
20260506060506 14 233 0.0 0.0 0.00 0.00 0.00 87 1011.0
20260506051009 15 243 0.0 0.0 0.00 0.00 0.00 85 1011.4
20260506050508 15 270 0.0 0.0 0.00 0.00 0.00 85 1011.4
20260506045005 15 136 0.0 0.0 0.00 0.00 0.00 84 1011.4
20260506044518 15 63 0.0 0.0 0.00 0.00 0.00 84 1011.5
20260506044006 15 259 0.0 0.0 0.00 0.00 0.00 83 1011.5
20260506043503 15 256 0.0 0.0 0.00 0.00 0.00 83 1011.4
20260506043022 15 211 0.0 0.0 0.00 0.00 0.00 83 1011.5
20260506042506 15 238 0.0 0.0 0.00 0.00 0.00 83 1011.4
20260506042012 15 219 0.0 0.0 0.00 0.00 0.00 82 1011.4
20260506041529 15 164 0.0 0.0 0.00 0.00 0.00 82 1011.4
20260506041009 15 226 0.0 0.0 0.00 0.00 0.00 81 1011.3
20260506040510 15 213 0.0 0.0 0.00 0.00 0.00 81 1011.3
20260506040028 16 233 0.0 0.0 0.00 0.00 0.00 80 1011.3
20260506035508 16 238 0.0 0.0 0.00 0.00 0.00 79 1011.3
20260506035004 16 122 0.0 0.0 0.00 0.00 0.00 79 1011.4
20260506034511 16 155 0.0 0.0 0.00 0.00 0.00 78 1011.3
20260506034004 16 213 0.0 0.0 0.00 0.00 0.00 78 1011.3
20260506033503 16 212 0.0 0.0 0.00 0.00 0.00 77 1011.3
20260506033017 16 233 0.0 0.0 0.00 0.00 0.00 77 1011.3
20260506032504 17 255 0.0 0.0 0.00 0.00 0.00 76 1011.2
20260506032007 17 227 0.0 0.0 0.00 0.00 0.00 76 1011.2
20260506031526 17 152 0.0 0.0 0.00 0.00 0.00 76 1011.1
20260506031006 17 194 0.0 0.0 0.00 0.00 0.00 75 1011.2
20260506030508 17 250 0.0 0.0 0.00 0.00 0.00 75 1011.2
20260506030031 17 123 0.0 0.0 0.00 0.00 0.00 75 1011.2
20260506025508 17 143 0.0 0.0 0.00 0.00 0.00 75 1011.2
20260506025009 17 170 0.0 0.0 0.00 0.00 0.00 75 1011.2
20260506024527 17 124 0.0 0.0 0.00 0.00 0.00 75 1011.3
20260506024010 17 124 0.0 0.0 0.00 0.00 0.00 75 1011.2
20260506023507 17 210 0.0 0.0 0.00 0.00 0.00 75 1011.3
20260506023015 17 239 0.0 0.0 0.00 0.00 0.00 75 1011.2
20260506022506 17 224 0.0 0.0 0.00 0.00 0.00 75 1011.2
20260506022004 17 160 0.0 0.0 0.00 0.00 0.00 74 1011.2
20260506021520 17 237 0.0 0.0 0.00 0.00 0.00 74 1011.2
20260506021008 17 236 0.0 0.0 0.00 0.00 0.00 74 1011.2
20260506020510 17 248 0.0 0.0 0.00 0.00 0.00 74 1011.2
20260506020024 17 230 0.0 0.0 0.00 0.00 0.00 74 1011.2
20260506015507 17 245 0.0 0.0 0.00 0.00 0.00 73 1011.3
20260506015006 18 101 0.0 0.0 0.00 0.00 0.00 73 1011.2
20260506014541 18 211 0.0 0.0 0.00 0.00 0.00 72 1011.1
20260506014009 18 231 0.0 0.0 0.00 0.00 0.00 72 1011.0
20260506013510 18 182 0.0 0.0 0.00 0.00 0.00 71 1010.8
20260506013030 18 228 0.0 0.0 0.00 0.00 0.00 71 1010.8
20260506012508 18 75 0.0 0.0 0.00 0.00 0.00 71 1010.9
20260506012009 18 227 0.0 0.0 0.00 0.00 0.00 71 1010.8
20260506011528 18 206 0.0 0.0 0.00 0.00 0.00 71 1010.7
20260506011005 18 226 0.0 0.0 0.00 0.00 0.00 70 1010.7
20260506010505 19 117 0.0 0.0 0.00 0.00 0.00 69 1010.6
20260506010027 19 160 0.0 0.0 0.00 0.00 0.00 69 1010.4
20260506005507 19 135 0.0 0.0 0.00 0.00 0.00 69 1010.4
20260506005010 19 205 0.0 0.0 0.00 0.00 0.00 69 1010.4
20260506004535 19 215 0.0 0.0 0.00 0.00 0.00 70 1010.2
20260506004007 19 204 0.0 0.0 0.00 0.00 0.00 70 1010.3
20260506003507 18 224 0.0 0.0 0.00 0.00 0.00 71 1010.3
20260506003027 18 125 0.0 0.0 0.00 0.00 0.00 71 1010.2
20260506002511 18 292 0.0 0.0 0.00 0.00 0.00 72 1010.2
20260506002010 18 193 0.0 0.0 0.00 0.00 0.00 72 1010.2
20260506001528 18 249 0.0 0.0 0.00 0.00 0.00 72 1010.2
20260506001008 18 237 0.0 0.0 0.00 0.00 0.00 72 1010.2
20260506000510 18 236 0.0 0.0 0.00 0.00 0.00 72 1010.2
20260506000036 18 215 0.0 0.0 0.00 0.00 0.00 72 1010.0
20260505235511 18 217 0.0 0.0 0.00 0.00 0.00 72 1010.0
20260505235006 18 224 0.0 0.0 0.00 0.00 0.00 72 1009.9
20260505234520 18 232 0.0 0.0 0.00 0.00 0.00 72 1009.9
20260505234006 18 226 0.0 0.0 0.00 0.00 0.00 72 1009.9
20260505233511 18 136 0.0 0.0 0.00 0.00 0.00 72 1009.8
20260505233023 18 251 0.0 0.0 0.00 0.00 0.00 72 1009.6
20260505232509 18 237 0.0 0.0 0.00 0.00 0.00 71 1009.6
20260505232011 18 233 0.0 0.0 0.00 0.00 0.00 71 1009.6
20260505231525 18 291 0.0 0.0 0.00 0.00 0.00 71 1009.5
20260505231008 18 57 0.0 0.0 0.00 0.00 0.00 70 1009.4
20260505230509 19 219 0.0 0.0 0.00 0.00 0.00 70 1009.3
20260505230033 19 250 0.0 0.0 0.00 0.00 0.00 70 1009.1
20260505225511 19 98 0.0 0.0 0.00 0.00 0.00 70 1009.1
20260505225012 19 139 0.0 0.0 0.00 0.00 0.00 70 1008.9
20260505224536 19 151 0.0 0.0 0.00 0.00 0.00 70 1008.8
20260505224013 20 247 0.0 0.0 0.00 0.00 0.00 69 1008.8
20260505223509 20 231 0.0 0.0 0.00 0.00 0.00 68 1008.9
20260505223036 20 218 0.0 0.0 0.00 0.00 0.00 67 1009.0
20260505222507 20 152 0.0 0.0 0.00 0.00 0.00 66 1009.0
20260505222010 21 136 0.0 0.0 0.00 0.00 0.00 66 1008.9
20260505221525 21 190 0.0 0.0 0.00 0.00 0.00 65 1008.7
20260505221006 21 214 0.0 0.0 0.00 0.00 0.00 65 1008.6
20260505220507 21 211 0.0 0.0 0.00 0.00 0.00 65 1008.7
20260505220037 21 199 0.0 0.0 0.00 0.00 0.00 65 1008.7
20260505215515 21 231 0.0 0.0 0.00 0.00 0.00 65 1008.7
20260505215004 21 188 0.0 0.0 0.00 0.00 0.00 65 1008.6
20260505214503 21 188 0.0 0.0 0.00 0.00 0.00 65 1008.7
20260505214006 21 208 0.0 0.0 0.00 0.00 0.00 65 1008.5
20260505213502 21 210 0.0 0.0 0.00 0.00 0.00 65 1008.5
20260505213003 21 105 0.0 0.0 0.00 0.00 0.00 65 1008.4
20260505212503 21 214 0.0 0.0 0.00 0.00 0.00 65 1008.4
20260505212002 21 117 0.0 0.0 0.00 0.00 0.00 64 1008.5
20260505211504 21 112 0.0 0.0 0.00 0.00 0.00 64 1008.5
20260505211004 21 164 0.0 0.0 0.00 0.00 0.00 63 1008.4
20260505210503 21 240 0.0 0.0 0.00 0.00 0.00 63 1008.3
20260505210009 22 292 0.0 0.0 0.00 0.00 0.00 63 1008.3
20260505205507 22 186 0.0 0.0 0.00 0.00 0.00 63 1008.3
20260505205009 22 189 0.0 0.0 0.00 0.00 0.00 63 1008.3
20260505204505 21 267 0.0 0.0 0.00 0.00 0.00 64 1008.4
20260505204002 21 174 0.0 0.0 0.00 0.00 0.00 64 1008.5
20260505203502 22 220 0.0 0.0 0.00 0.00 0.00 63 1008.5
20260505203003 22 131 0.0 0.0 0.00 0.00 0.00 62 1008.3
20260505202503 22 241 0.0 0.0 0.00 0.00 0.00 61 1008.4
20260505202003 22 164 0.0 0.0 0.00 0.00 0.00 60 1008.4
20260505201504 23 239 0.0 0.0 0.00 0.00 0.00 60 1008.4
20260505201003 23 236 0.0 0.0 0.00 0.00 0.00 60 1008.6
20260505200506 23 181 0.0 0.0 0.00 0.00 0.00 60 1008.7
20260505200009 23 185 0.0 0.0 0.00 0.00 0.00 59 1008.7
20260505195503 23 83 0.0 0.0 0.00 0.00 0.00 59 1008.6
20260505195003 24 152 0.0 0.0 0.00 0.00 0.00 59 1008.8
20260505194510 23 72 0.0 0.0 0.00 0.00 0.00 59 1008.8
20260505194005 23 212 0.0 0.0 0.00 0.00 0.00 60 1009.1
20260505193503 23 238 0.0 0.0 0.00 0.00 0.00 60 1009.2
20260505193035 23 132 0.0 0.0 0.00 0.00 0.00 59 1009.2
20260505192502 23 154 0.0 0.0 0.00 0.00 0.00 61 1009.2
20260505192002 22 240 0.0 0.0 0.00 0.00 0.00 61 1009.4
20260505191503 22 204 0.0 0.0 0.00 0.00 0.00 61 1009.4
20260505191004 22 83 0.0 0.0 0.00 0.00 0.00 61 1009.6
20260505190503 22 207 0.0 0.0 0.00 0.00 0.00 61 1009.7
20260505190013 22 162 0.0 0.0 0.00 0.00 0.00 62 1009.8
20260505185506 22 226 0.0 0.0 0.00 0.00 0.00 62 1009.9
20260505185004 22 205 0.0 0.0 0.00 0.00 0.00 63 1010.1
20260505184506 22 221 0.0 0.0 0.00 0.00 0.00 63 1010.0
20260505184004 22 206 0.0 0.0 0.00 0.00 0.00 61 1010.2
20260505183503 22 229 0.0 0.0 0.00 0.00 0.00 62 1010.2
20260505183022 22 163 0.0 0.0 0.00 0.00 0.00 61 1010.3
20260505182503 22 200 0.0 0.0 0.00 0.00 0.00 62 1010.3
20260505182007 22 109 0.0 0.0 0.00 0.00 0.00 62 1010.3
20260505181521 22 138 0.0 0.0 0.00 0.00 0.00 61 1010.3
20260505181014 23 109 0.0 0.0 0.00 0.00 0.00 62 1010.3
20260505180501 23 172 0.0 0.0 0.00 0.00 0.00 62 1010.5
20260505180003 23 149 0.0 0.0 0.00 0.00 0.00 61 1010.5
20260505175500 23 113 0.0 0.0 0.00 0.00 0.00 61 1010.5
20260505175001 22 123 0.0 0.0 0.00 0.00 0.00 62 1010.5
20260505174505 22 153 0.0 0.0 0.00 0.00 0.00 62 1010.6
20260505174004 22 91 0.0 0.0 0.00 0.00 0.00 62 1010.6
20260505173504 22 140 0.0 0.0 0.00 0.00 0.00 62 1010.7
20260505173008 22 117 0.0 0.0 0.00 0.00 0.00 61 1010.7
20260505172503 23 120 0.0 0.0 0.00 0.00 0.00 60 1010.7
20260505172003 23 213 0.0 0.0 0.00 0.00 0.00 59 1010.7
20260505171526 23 138 0.0 0.0 0.00 0.00 0.00 58 1010.6
20260505171003 23 181 0.0 0.0 0.00 0.00 0.00 56 1010.7
20260505170505 25 132 0.0 0.0 0.00 0.00 0.00 56 1010.8
20260505170021 25 228 0.0 0.0 0.00 0.00 0.00 55 1010.8
20260505165504 25 99 0.0 0.0 0.00 0.00 0.00 54 1010.8
20260505165003 25 164 0.0 0.0 0.00 0.00 0.00 56 1010.9
20260505164504 25 150 0.0 0.0 0.00 0.00 0.00 55 1010.9
20260505164000 25 141 0.0 0.0 0.00 0.00 0.00 55 1011.0
20260505163504 25 74 0.0 0.0 0.00 0.00 0.00 56 1011.0
20260505163009 24 217 0.0 0.0 0.00 0.00 0.00 56 1011.1
20260505162502 25 190 0.0 0.0 0.00 0.00 0.00 55 1011.1
20260505162004 25 274 0.0 0.0 0.00 0.00 0.00 56 1011.2
20260505161512 25 101 0.0 0.0 0.00 0.00 0.00 55 1011.2
20260505161004 24 231 0.0 0.0 0.00 0.00 0.00 55 1011.3
20260505160504 24 233 0.0 0.0 0.00 0.00 0.00 54 1011.4
20260505153008 23 17 0.0 0.0 0.00 0.00 0.00 59 1011.7
20260505152503 23 216 0.0 0.0 0.00 0.00 0.00 59 1011.8
20260505152006 23 230 0.0 0.0 0.00 0.00 0.00 60 1011.6
20260505151508 22 238 0.0 0.0 0.00 0.00 0.00 61 1011.6
20260505151007 22 169 0.0 0.0 0.00 0.00 0.00 61 1011.7
20260505150504 22 145 0.0 0.0 0.00 0.00 0.00 60 1011.9
20260505140509 22 165 0.0 0.0 0.00 0.00 0.00 60 1012.0
20260505125009 19 234 0.0 0.0 0.00 0.00 0.00 68 1011.6
20260505124517 19 166 0.0 0.0 0.00 0.00 0.00 69 1011.7
20260505124009 19 196 0.0 0.0 0.00 0.00 0.00 70 1011.7
20260505123501 19 191 0.0 0.0 0.00 0.00 0.00 70 1011.8